sat.trackr.live / text

‹ back to catalog

HULIANWANG DIGUI-21

NORAD 63688 · 2025-086B

PAYLOAD ACTIVE UNKNOWN

§ Identity

Operator
Country
PRC
Launch date
2025-04-28
Launch site
WSC
Launch vehicle
Mass (kg)
RCS (m²)

External: N2YO · Heavens-Above · Gunter

§ Orbital elements

Epoch: 2026-09-21T23:03:26.316864Z

Period
108.73 min
Inclination
86.5010°
Eccentricity
0.0001896
Mean motion
13.24411347 rev/d
Perigee alt
1,166.5 km
Apogee alt
1,169.3 km
Semi-major
7,546.1 km
B*
-1.8339e-4
RAAN
280.6123°
Arg perigee
76.7261°
Mean anomaly
283.4085°
Rev number
6,767

§ Raw data

HULIANWANG DIGUI-211 63688U 25086B   26264.96072126 -.00000064  00000+0 -18339-3 0  99932 63688  86.5010 280.6123 0001896  76.7261 283.4085 13.24411347 67674

JSON: /api/v1/satellites/63688 · /tle

For live sub-satellite position, see the globe view (requires WebGL).

§ Visibility from observer

Set your observer location to see the next 7 days of passes ≥ 10°. The values pass through the URL so the page stays shareable.

No JS? Fill the form by hand. The geolocation button needs JavaScript.